| time (UTC) | temp F | wind direction | speed knots | gust knots | rain 1hr in | rain 24hr in | rain mn in | humidity % | barometer mb |
| 20260510094704 | 55 | 201 | 0.0 | 0.0 | 0.00 | 0.00 | 0.00 | 83 | 1016.9 |
| 20260510094204 | 56 | 201 | 0.0 | 0.0 | 0.00 | 0.00 | 0.00 | 82 | 1016.8 |
| 20260510093704 | 56 | 201 | 0.0 | 0.0 | 0.00 | 0.00 | 0.00 | 81 | 1016.9 |
| 20260510093204 | 57 | 201 | 0.0 | 0.0 | 0.00 | 0.00 | 0.00 | 80 | 1016.8 |
| 20260510092705 | 57 | 201 | 0.0 | 0.0 | 0.00 | 0.00 | 0.00 | 80 | 1016.9 |
| 20260510092205 | 57 | 201 | 0.0 | 0.0 | 0.00 | 0.00 | 0.00 | 78 | 1016.7 |
| 20260510091705 | 58 | 201 | 0.0 | 0.0 | 0.00 | 0.00 | 0.00 | 76 | 1016.6 |
| 20260510090205 | 60 | 201 | 0.0 | 0.0 | 0.00 | 0.00 | 0.00 | 74 | 1016.5 |
| 20260510085705 | 60 | 193 | 0.0 | 0.0 | 0.00 | 0.00 | 0.00 | 74 | 1016.4 |
| 20260510084704 | 60 | 193 | 0.0 | 0.0 | 0.00 | 0.00 | 0.00 | 72 | 1016.4 |
| 20260510084204 | 60 | 193 | 0.0 | 0.0 | 0.00 | 0.00 | 0.00 | 72 | 1016.4 |
| 20260510083705 | 61 | 193 | 0.0 | 0.0 | 0.00 | 0.00 | 0.00 | 71 | 1016.3 |
| 20260510083204 | 61 | 193 | 0.0 | 0.0 | 0.00 | 0.00 | 0.00 | 71 | 1016.2 |
| 20260510082704 | 61 | 193 | 0.0 | 0.0 | 0.00 | 0.00 | 0.00 | 70 | 1016.2 |
| 20260510081704 | 62 | 193 | 0.0 | 0.0 | 0.00 | 0.00 | 0.00 | 68 | 1016.0 |
| 20260510081204 | 62 | 193 | 0.0 | 0.0 | 0.00 | 0.00 | 0.00 | 68 | 1016.3 |
| 20260510080704 | 62 | 193 | 0.0 | 0.0 | 0.00 | 0.00 | 0.00 | 67 | 1016.0 |
| 20260510080204 | 62 | 193 | 0.0 | 0.0 | 0.00 | 0.00 | 0.00 | 68 | 1016.1 |
| 20260510075704 | 63 | 193 | 0.0 | 0.0 | 0.00 | 0.00 | 0.00 | 67 | 1015.9 |
| 20260510074704 | 63 | 193 | 0.0 | 0.0 | 0.00 | 0.00 | 0.00 | 66 | 1015.9 |
| 20260510073704 | 64 | 191 | 0.0 | 0.9 | 0.00 | 0.00 | 0.00 | 67 | 1015.6 |
| 20260510073205 | 64 | 190 | 0.9 | 0.9 | 0.00 | 0.00 | 0.00 | 66 | 1015.6 |
| 20260510072706 | 64 | 189 | 0.9 | 1.7 | 0.00 | 0.00 | 0.00 | 65 | 1015.7 |
| 20260510072204 | 65 | 187 | 0.9 | 1.7 | 0.00 | 0.00 | 0.00 | 64 | 1015.6 |
| 20260510071704 | 65 | 181 | 1.7 | 1.7 | 0.00 | 0.00 | 0.00 | 63 | 1015.7 |
| 20260510071204 | 65 | 180 | 1.7 | 4.3 | 0.00 | 0.00 | 0.00 | 63 | 1015.6 |
| 20260510070204 | 66 | 177 | 0.9 | 1.7 | 0.00 | 0.00 | 0.00 | 63 | 1015.5 |
| 20260510065704 | 66 | 158 | 0.9 | 1.7 | 0.00 | 0.00 | 0.00 | 61 | 1015.7 |
| 20260510065204 | 66 | 185 | 0.9 | 4.3 | 0.00 | 0.00 | 0.00 | 61 | 1015.6 |
| 20260510064705 | 67 | 189 | 0.9 | 2.6 | 0.00 | 0.00 | 0.00 | 60 | 1015.8 |
| 20260510064204 | 66 | 207 | 0.9 | 1.7 | 0.00 | 0.00 | 0.00 | 61 | 1015.8 |
| 20260510063704 | 66 | 193 | 0.0 | 1.7 | 0.00 | 0.00 | 0.00 | 61 | 1015.8 |
| 20260510063204 | 66 | 211 | 0.0 | 0.0 | 0.00 | 0.00 | 0.00 | 61 | 1015.7 |
| 20260510062705 | 65 | 211 | 0.0 | 0.0 | 0.00 | 0.00 | 0.00 | 61 | 1015.7 |
| 20260510061704 | 64 | 197 | 0.0 | 0.9 | 0.00 | 0.00 | 0.00 | 61 | 1015.9 |
| 20260510061204 | 65 | 196 | 0.9 | 1.7 | 0.00 | 0.00 | 0.00 | 62 | 1015.6 |
| 20260510060704 | 65 | 195 | 0.9 | 4.3 | 0.00 | 0.00 | 0.00 | 61 | 1015.8 |
| 20260510060204 | 65 | 172 | 2.6 | 5.2 | 0.00 | 0.00 | 0.00 | 61 | 1015.6 |
| 20260510054704 | 66 | 189 | 0.9 | 1.7 | 0.00 | 0.00 | 0.00 | 60 | 1015.6 |
| 20260510054204 | 66 | 189 | 0.9 | 4.3 | 0.00 | 0.00 | 0.00 | 61 | 1015.6 |
| 20260510053705 | 66 | 208 | 2.6 | 6.1 | 0.00 | 0.00 | 0.00 | 61 | 1015.6 |
| 20260510053204 | 64 | 188 | 1.7 | 6.1 | 0.00 | 0.00 | 0.00 | 63 | 1015.6 |
| 20260510052704 | 65 | 151 | 1.7 | 2.6 | 0.00 | 0.00 | 0.00 | 64 | 1015.7 |
| 20260510052205 | 65 | 149 | 0.9 | 5.2 | 0.00 | 0.00 | 0.00 | 63 | 1015.7 |
| 20260510051205 | 64 | 157 | 0.9 | 4.3 | 0.00 | 0.00 | 0.00 | 63 | 1015.8 |
| 20260510050704 | 65 | 142 | 2.6 | 5.2 | 0.00 | 0.00 | 0.00 | 63 | 1015.8 |
| 20260510050205 | 65 | 178 | 0.9 | 2.6 | 0.00 | 0.00 | 0.00 | 63 | 1015.8 |
| 20260510045204 | 65 | 130 | 1.7 | 5.2 | 0.00 | 0.00 | 0.00 | 64 | 1015.7 |
| 20260510044704 | 64 | 161 | 0.9 | 4.3 | 0.00 | 0.00 | 0.00 | 63 | 1015.7 |
| 20260510044205 | 64 | 87 | 2.6 | 5.2 | 0.00 | 0.00 | 0.00 | 63 | 1015.7 |
| 20260510043705 | 64 | 148 | 0.9 | 5.2 | 0.00 | 0.00 | 0.00 | 64 | 1015.7 |
| 20260510043204 | 64 | 142 | 1.7 | 5.2 | 0.00 | 0.00 | 0.00 | 64 | 1015.9 |
| 20260510042704 | 65 | 163 | 2.6 | 6.1 | 0.00 | 0.00 | 0.00 | 63 | 1016.0 |
| 20260510041704 | 65 | 252 | 1.7 | 6.1 | 0.00 | 0.00 | 0.00 | 63 | 1015.9 |
| 20260510041204 | 64 | 147 | 1.7 | 7.8 | 0.00 | 0.00 | 0.00 | 62 | 1015.8 |
| 20260510040705 | 65 | 146 | 2.6 | 7.0 | 0.00 | 0.00 | 0.00 | 62 | 1015.8 |
| 20260510040204 | 64 | 112 | 2.6 | 5.2 | 0.00 | 0.00 | 0.00 | 63 | 1016.0 |
| 20260510035204 | 64 | 129 | 1.7 | 5.2 | 0.00 | 0.00 | 0.00 | 64 | 1016.0 |
| 20260510034204 | 63 | 191 | 0.9 | 4.3 | 0.00 | 0.00 | 0.00 | 64 | 1016.2 |
| 20260510033705 | 63 | 201 | 0.9 | 4.3 | 0.00 | 0.00 | 0.00 | 67 | 1015.9 |
| 20260510033204 | 63 | 196 | 0.9 | 4.3 | 0.00 | 0.00 | 0.00 | 68 | 1016.2 |
| 20260510032705 | 63 | 209 | 0.0 | 2.6 | 0.00 | 0.00 | 0.00 | 68 | 1016.4 |
| 20260510032204 | 64 | 197 | 1.7 | 4.3 | 0.00 | 0.00 | 0.00 | 69 | 1016.4 |
| 20260510031704 | 63 | 198 | 0.9 | 4.3 | 0.00 | 0.00 | 0.00 | 69 | 1016.4 |
| 20260510031204 | 64 | 176 | 1.7 | 5.2 | 0.00 | 0.00 | 0.00 | 67 | 1016.4 |
| 20260510030705 | 63 | 234 | 1.7 | 7.8 | 0.00 | 0.00 | 0.00 | 67 | 1016.4 |
| 20260510030204 | 64 | 208 | 1.7 | 6.1 | 0.00 | 0.00 | 0.00 | 67 | 1016.5 |
| 20260510025704 | 63 | 199 | 0.9 | 6.1 | 0.00 | 0.00 | 0.00 | 68 | 1016.4 |
| 20260510025204 | 61 | 199 | 0.9 | 2.6 | 0.00 | 0.00 | 0.00 | 72 | 1016.6 |
| 20260510024705 | 63 | 164 | 0.9 | 5.2 | 0.00 | 0.00 | 0.00 | 71 | 1016.5 |
| 20260510024204 | 62 | 110 | 1.7 | 4.3 | 0.00 | 0.00 | 0.00 | 71 | 1016.7 |
| 20260510023704 | 63 | 236 | 2.6 | 7.0 | 0.00 | 0.00 | 0.00 | 71 | 1016.8 |
| 20260510023205 | 62 | 246 | 4.3 | 7.0 | 0.00 | 0.00 | 0.00 | 73 | 1016.8 |
| 20260510022205 | 62 | 213 | 2.6 | 5.2 | 0.00 | 0.00 | 0.00 | 73 | 1017.0 |
| 20260510021705 | 60 | 229 | 0.9 | 2.6 | 0.00 | 0.00 | 0.00 | 74 | 1017.0 |
| 20260510020704 | 60 | 192 | 1.7 | 5.2 | 0.00 | 0.00 | 0.00 | 76 | 1017.3 |
| 20260510015205 | 59 | 220 | 1.7 | 2.6 | 0.00 | 0.00 | 0.00 | 78 | 1017.5 |
| 20260510014705 | 60 | 217 | 2.6 | 4.3 | 0.00 | 0.00 | 0.00 | 79 | 1017.4 |
| 20260510014205 | 59 | 157 | 0.9 | 4.3 | 0.00 | 0.00 | 0.00 | 79 | 1017.6 |
| 20260510013704 | 58 | 180 | 1.7 | 2.6 | 0.00 | 0.00 | 0.00 | 81 | 1017.7 |
| 20260510013204 | 58 | 169 | 1.7 | 2.6 | 0.00 | 0.00 | 0.00 | 81 | 1017.6 |
| 20260510012705 | 58 | 163 | 0.9 | 2.6 | 0.00 | 0.01 | 0.00 | 82 | 1017.6 |
| 20260510012205 | 57 | 197 | 0.9 | 1.7 | 0.00 | 0.01 | 0.00 | 83 | 1017.8 |
| 20260510011705 | 57 | 179 | 1.7 | 2.6 | 0.00 | 0.01 | 0.00 | 84 | 1017.8 |
| 20260510011205 | 57 | 144 | 0.9 | 2.6 | 0.00 | 0.01 | 0.00 | 85 | 1017.9 |
| 20260510010704 | 57 | 184 | 1.7 | 2.6 | 0.00 | 0.01 | 0.00 | 85 | 1017.7 |
| 20260510010204 | 56 | 205 | 0.9 | 1.7 | 0.00 | 0.01 | 0.00 | 86 | 1017.9 |
| 20260510005703 | 56 | 163 | 0.9 | 4.3 | 0.00 | 0.01 | 0.00 | 87 | 1017.8 |
| 20260510005204 | 56 | 171 | 0.9 | 2.6 | 0.00 | 0.01 | 0.00 | 89 | 1017.9 |
| 20260510004704 | 55 | 179 | 0.9 | 1.7 | 0.00 | 0.01 | 0.00 | 91 | 1017.7 |
| 20260510004204 | 55 | 180 | 0.0 | 5.2 | 0.00 | 0.01 | 0.00 | 92 | 1017.9 |
| 20260510003704 | 54 | 183 | 0.9 | 5.2 | 0.00 | 0.01 | 0.00 | 93 | 1017.9 |
| 20260510003204 | 54 | 176 | 1.7 | 5.2 | 0.00 | 0.01 | 0.00 | 94 | 1018.0 |
| 20260510002704 | 54 | 192 | 0.9 | 4.3 | 0.00 | 0.01 | 0.00 | 95 | 1017.9 |
| 20260510002204 | 54 | 189 | 0.0 | 0.0 | 0.00 | 0.01 | 0.00 | 96 | 1018.0 |
| 20260510001704 | 53 | 203 | 0.0 | 0.0 | 0.00 | 0.01 | 0.00 | 97 | 1018.1 |
| 20260510001204 | 53 | 196 | 0.0 | 0.0 | 0.00 | 0.01 | 0.00 | 97 | 1017.9 |
| 20260510000705 | 53 | 206 | 0.0 | 2.6 | 0.00 | 0.01 | 0.00 | 98 | 1017.9 |
| 20260510000204 | 53 | 191 | 0.9 | 5.2 | 0.00 | 0.01 | 0.00 | 98 | 1018.1 |
| 20260509235704 | 53 | 188 | 0.9 | 4.3 | 0.00 | 0.01 | 0.00 | 98 | 1018.0 |
| 20260509235204 | 53 | 169 | 1.7 | 6.1 | 0.00 | 0.02 | 0.00 | 99 | 1018.2 |
| 20260509234704 | 53 | 159 | 3.5 | 7.0 | 0.00 | 0.02 | 0.00 | 99 | 1018.1 |
| 20260509234205 | 52 | 180 | 1.7 | 5.2 | 0.00 | 0.02 | 0.00 | 99 | 1018.1 |
| 20260509233704 | 52 | 172 | 2.6 | 4.3 | 0.00 | 0.02 | 0.00 | 99 | 1018.1 |
| 20260509233205 | 52 | 196 | 1.7 | 5.2 | 0.00 | 0.02 | 0.00 | 99 | 1018.0 |
| 20260509232704 | 52 | 178 | 1.7 | 5.2 | 0.00 | 0.02 | 0.00 | 99 | 1018.0 |
| 20260509232204 | 52 | 192 | 2.6 | 5.2 | 0.00 | 0.02 | 0.00 | 99 | 1018.1 |
| 20260509231704 | 52 | 176 | 1.7 | 6.1 | 0.00 | 0.02 | 0.00 | 99 | 1018.1 |
| 20260509231204 | 52 | 179 | 0.0 | 0.0 | 0.00 | 0.02 | 0.00 | 99 | 1018.0 |
| 20260509230704 | 52 | 188 | 0.0 | 0.0 | 0.00 | 0.02 | 0.00 | 99 | 1018.2 |
| 20260509230204 | 52 | 191 | 0.0 | 0.0 | 0.00 | 0.02 | 0.00 | 99 | 1018.0 |
| 20260509225705 | 52 | 177 | 0.0 | 0.0 | 0.00 | 0.02 | 0.00 | 99 | 1018.0 |
| 20260509225205 | 52 | 186 | 0.0 | 0.0 | 0.00 | 0.02 | 0.00 | 99 | 1018.1 |
| 20260509224705 | 52 | 183 | 0.0 | 0.0 | 0.00 | 0.02 | 0.00 | 99 | 1018.0 |
| 20260509224205 | 52 | 189 | 0.0 | 0.0 | 0.00 | 0.02 | 0.00 | 99 | 1018.0 |
| 20260509223704 | 52 | 184 | 0.0 | 0.0 | 0.00 | 0.02 | 0.00 | 99 | 1018.0 |
| 20260509223204 | 52 | 174 | 0.9 | 2.6 | 0.00 | 0.02 | 0.00 | 99 | 1017.9 |
| 20260509222704 | 52 | 164 | 2.6 | 5.2 | 0.00 | 0.02 | 0.00 | 99 | 1017.6 |
| 20260509222204 | 52 | 179 | 1.7 | 4.3 | 0.00 | 0.02 | 0.00 | 99 | 1017.6 |
| 20260509221704 | 53 | 173 | 2.6 | 5.2 | 0.00 | 0.02 | 0.00 | 99 | 1017.7 |
| 20260509220705 | 52 | 207 | 0.0 | 0.0 | 0.00 | 0.02 | 0.00 | 99 | 1017.5 |
| 20260509220205 | 52 | 204 | 0.9 | 1.7 | 0.00 | 0.03 | 0.00 | 99 | 1017.6 |
| 20260509215704 | 51 | 209 | 0.0 | 0.0 | 0.00 | 0.03 | 0.00 | 99 | 1017.3 |
| 20260509215205 | 51 | 209 | 0.0 | 0.0 | 0.00 | 0.03 | 0.00 | 99 | 1017.5 |
| 20260509214704 | 50 | 209 | 0.0 | 0.0 | 0.00 | 0.03 | 0.00 | 99 | 1017.4 |
| 20260509214204 | 50 | 209 | 0.0 | 0.0 | 0.00 | 0.03 | 0.00 | 99 | 1017.4 |
| 20260509213205 | 50 | 210 | 0.0 | 0.0 | 0.00 | 0.03 | 0.00 | 99 | 1017.3 |
| 20260509212704 | 50 | 210 | 0.0 | 0.0 | 0.00 | 0.03 | 0.00 | 99 | 1017.1 |
| 20260509212204 | 50 | 210 | 0.0 | 0.0 | 0.00 | 0.04 | 0.00 | 99 | 1017.2 |
| 20260509211204 | 50 | 210 | 0.0 | 0.0 | 0.00 | 0.05 | 0.00 | 99 | 1017.0 |
| 20260509210704 | 50 | 210 | 0.0 | 0.0 | 0.00 | 0.05 | 0.00 | 99 | 1016.9 |
| 20260509210204 | 50 | 210 | 0.0 | 0.0 | 0.00 | 0.05 | 0.00 | 99 | 1016.8 |
| 20260509205704 | 50 | 210 | 0.0 | 0.0 | 0.00 | 0.05 | 0.00 | 99 | 1016.9 |
| 20260509205206 | 49 | 210 | 0.0 | 0.0 | 0.00 | 0.05 | 0.00 | 99 | 1016.9 |
| 20260509204204 | 49 | 209 | 0.0 | 0.0 | 0.00 | 0.05 | 0.00 | 99 | 1016.9 |
| 20260509203704 | 49 | 211 | 0.0 | 0.0 | 0.00 | 0.05 | 0.00 | 99 | 1016.7 |
| 20260509203205 | 49 | 213 | 0.0 | 0.0 | 0.00 | 0.05 | 0.00 | 99 | 1016.6 |
| 20260509202705 | 49 | 215 | 0.0 | 0.0 | 0.00 | 0.06 | 0.00 | 99 | 1016.6 |
| 20260509202205 | 49 | 216 | 0.0 | 0.0 | 0.00 | 0.06 | 0.00 | 99 | 1016.5 |
| 20260509201704 | 49 | 198 | 0.0 | 0.0 | 0.00 | 0.06 | 0.00 | 99 | 1016.4 |
| 20260509200704 | 49 | 196 | 0.0 | 0.0 | 0.00 | 0.06 | 0.00 | 99 | 1016.5 |
| 20260509200205 | 49 | 196 | 0.0 | 0.0 | 0.00 | 0.06 | 0.00 | 99 | 1016.3 |
| 20260509195705 | 49 | 196 | 0.0 | 0.0 | 0.00 | 0.06 | 0.00 | 99 | 1016.4 |
| 20260509195205 | 49 | 196 | 0.0 | 0.0 | 0.00 | 0.06 | 0.00 | 99 | 1016.3 |
| 20260509194704 | 48 | 196 | 0.0 | 0.0 | 0.00 | 0.06 | 0.00 | 99 | 1016.3 |
| 20260509194205 | 48 | 196 | 0.0 | 0.0 | 0.00 | 0.06 | 0.00 | 99 | 1016.2 |
| 20260509193704 | 48 | 196 | 0.0 | 0.0 | 0.00 | 0.06 | 0.00 | 99 | 1016.3 |
| 20260509193204 | 48 | 196 | 0.0 | 0.0 | 0.00 | 0.06 | 0.00 | 99 | 1016.3 |
| 20260509192205 | 47 | 196 | 0.0 | 0.0 | 0.00 | 0.06 | 0.00 | 99 | 1016.0 |
| 20260509191704 | 47 | 196 | 0.0 | 0.0 | 0.00 | 0.06 | 0.00 | 99 | 1016.2 |
| 20260509191204 | 46 | 196 | 0.0 | 0.0 | 0.00 | 0.06 | 0.00 | 99 | 1016.2 |
| 20260509190706 | 46 | 196 | 0.0 | 0.0 | 0.00 | 0.06 | 0.00 | 99 | 1016.0 |
| 20260509190204 | 45 | 196 | 0.0 | 0.0 | 0.00 | 0.06 | 0.00 | 99 | 1016.1 |
| 20260509185205 | 46 | 195 | 0.0 | 0.0 | 0.00 | 0.06 | 0.00 | 99 | 1015.7 |
| 20260509184205 | 46 | 195 | 0.0 | 0.0 | 0.00 | 0.06 | 0.00 | 99 | 1015.9 |
| 20260509183705 | 46 | 195 | 0.0 | 0.0 | 0.00 | 0.06 | 0.00 | 99 | 1015.6 |
| 20260509183205 | 46 | 195 | 0.0 | 0.0 | 0.00 | 0.06 | 0.00 | 99 | 1015.6 |
| 20260509182705 | 46 | 195 | 0.0 | 0.0 | 0.00 | 0.06 | 0.00 | 99 | 1015.7 |
| 20260509182205 | 46 | 195 | 0.0 | 0.0 | 0.00 | 0.06 | 0.00 | 99 | 1015.6 |
| 20260509180704 | 45 | 194 | 0.0 | 0.0 | 0.00 | 0.06 | 0.00 | 99 | 1015.7 |
| 20260509180205 | 46 | 194 | 0.0 | 0.0 | 0.00 | 0.06 | 0.00 | 99 | 1015.8 |
| 20260509175705 | 46 | 194 | 0.0 | 0.0 | 0.00 | 0.06 | 0.00 | 99 | 1015.7 |
| 20260509175205 | 47 | 194 | 0.0 | 0.0 | 0.00 | 0.06 | 0.00 | 99 | 1015.8 |
| 20260509174704 | 47 | 194 | 0.0 | 0.0 | 0.00 | 0.06 | 0.00 | 99 | 1015.8 |
| 20260509174204 | 46 | 194 | 0.0 | 0.0 | 0.00 | 0.06 | 0.00 | 99 | 1015.6 |
| 20260509173704 | 47 | 193 | 0.0 | 0.0 | 0.00 | 0.06 | 0.00 | 99 | 1015.8 |
| 20260509171204 | 50 | 197 | 0.0 | 0.0 | 0.00 | 0.06 | 0.00 | 99 | 1015.8 |
| 20260509170705 | 50 | 197 | 0.0 | 0.0 | 0.00 | 0.06 | 0.00 | 99 | 1015.9 |
| 20260509170205 | 51 | 196 | 0.0 | 0.0 | 0.00 | 0.06 | 0.00 | 99 | 1015.8 |
| 20260509165704 | 50 | 196 | 0.0 | 0.0 | 0.00 | 0.06 | 0.00 | 99 | 1015.9 |
| 20260509164705 | 52 | 196 | 0.0 | 0.0 | 0.00 | 0.06 | 0.00 | 99 | 1015.7 |
| 20260509163704 | 52 | 196 | 0.0 | 0.0 | 0.00 | 0.06 | 0.00 | 99 | 1015.9 |
| 20260509163205 | 52 | 196 | 0.0 | 0.0 | 0.00 | 0.06 | 0.00 | 99 | 1015.9 |
| 20260509162204 | 52 | 196 | 0.0 | 0.0 | 0.00 | 0.06 | 0.00 | 98 | 1016.0 |
| 20260509161705 | 52 | 196 | 0.0 | 0.0 | 0.00 | 0.06 | 0.00 | 98 | 1015.9 |
| 20260509161205 | 52 | 196 | 0.0 | 0.0 | 0.00 | 0.06 | 0.00 | 98 | 1016.0 |
| 20260509160705 | 52 | 196 | 0.0 | 0.0 | 0.00 | 0.06 | 0.00 | 98 | 1016.0 |
| 20260509160204 | 52 | 196 | 0.0 | 0.0 | 0.00 | 0.06 | 0.00 | 98 | 1016.0 |
| 20260509155704 | 52 | 196 | 0.0 | 0.0 | 0.00 | 0.06 | 0.00 | 98 | 1016.0 |
| 20260509155205 | 52 | 195 | 0.0 | 0.0 | 0.00 | 0.06 | 0.00 | 98 | 1016.0 |
| 20260509154704 | 52 | 195 | 0.0 | 0.0 | 0.00 | 0.06 | 0.00 | 98 | 1016.1 |
| 20260509154205 | 52 | 195 | 0.0 | 0.0 | 0.00 | 0.06 | 0.00 | 98 | 1015.9 |
| 20260509153705 | 52 | 195 | 0.0 | 0.0 | 0.00 | 0.06 | 0.00 | 98 | 1016.0 |
| 20260509152705 | 52 | 195 | 0.0 | 0.0 | 0.00 | 0.06 | 0.00 | 98 | 1015.9 |
| 20260509151706 | 52 | 195 | 0.0 | 0.0 | 0.00 | 0.06 | 0.00 | 98 | 1016.0 |
| 20260509150704 | 53 | 195 | 0.0 | 0.0 | 0.00 | 0.06 | 0.00 | 98 | 1016.1 |
| 20260509150204 | 53 | 195 | 0.0 | 0.0 | 0.00 | 0.06 | 0.00 | 97 | 1016.0 |
| 20260509145704 | 53 | 194 | 0.0 | 0.0 | 0.00 | 0.06 | 0.00 | 97 | 1015.9 |
| 20260509145205 | 53 | 194 | 0.0 | 0.0 | 0.00 | 0.06 | 0.00 | 97 | 1016.1 |
| 20260509143705 | 53 | 194 | 0.0 | 0.0 | 0.00 | 0.06 | 0.00 | 97 | 1016.2 |
| 20260509143204 | 53 | 194 | 0.0 | 0.0 | 0.00 | 0.06 | 0.00 | 97 | 1016.1 |
| 20260509142705 | 53 | 195 | 0.0 | 0.0 | 0.00 | 0.06 | 0.06 | 97 | 1016.2 |
| 20260509142204 | 53 | 195 | 0.0 | 0.0 | 0.00 | 0.06 | 0.06 | 97 | 1016.3 |
| 20260509141705 | 53 | 195 | 0.0 | 0.0 | 0.00 | 0.06 | 0.06 | 97 | 1016.3 |
| 20260509141204 | 53 | 195 | 0.0 | 0.0 | 0.00 | 0.06 | 0.06 | 97 | 1016.3 |
| 20260509140705 | 53 | 194 | 0.0 | 0.0 | 0.00 | 0.06 | 0.06 | 97 | 1016.1 |
| 20260509140204 | 53 | 194 | 0.0 | 0.0 | 0.00 | 0.06 | 0.06 | 96 | 1016.2 |
| 20260509135704 | 53 | 194 | 0.0 | 0.0 | 0.00 | 0.06 | 0.06 | 96 | 1016.2 |
| 20260509135205 | 53 | 194 | 0.0 | 0.0 | 0.00 | 0.06 | 0.06 | 96 | 1016.2 |
| 20260509134704 | 53 | 194 | 0.0 | 0.0 | 0.00 | 0.06 | 0.06 | 96 | 1016.3 |
| 20260509134204 | 53 | 194 | 0.0 | 0.0 | 0.00 | 0.06 | 0.06 | 96 | 1016.3 |
| 20260509133704 | 53 | 194 | 0.0 | 0.0 | 0.00 | 0.06 | 0.06 | 96 | 1016.3 |
| 20260509133204 | 53 | 194 | 0.0 | 0.0 | 0.00 | 0.06 | 0.06 | 95 | 1016.2 |
| 20260509132205 | 53 | 194 | 0.0 | 0.0 | 0.00 | 0.06 | 0.06 | 95 | 1016.4 |
| 20260509131704 | 53 | 194 | 0.0 | 0.0 | 0.00 | 0.06 | 0.06 | 95 | 1016.4 |
| 20260509131204 | 53 | 194 | 0.0 | 0.0 | 0.00 | 0.06 | 0.06 | 95 | 1016.4 |
| 20260509130705 | 54 | 194 | 0.0 | 0.0 | 0.00 | 0.06 | 0.06 | 95 | 1016.3 |
| 20260509125705 | 53 | 193 | 0.0 | 0.0 | 0.00 | 0.06 | 0.06 | 95 | 1016.4 |
| 20260509125204 | 53 | 193 | 0.0 | 0.0 | 0.00 | 0.06 | 0.06 | 94 | 1016.6 |
| 20260509124705 | 53 | 192 | 0.0 | 0.0 | 0.00 | 0.06 | 0.06 | 94 | 1016.4 |
| 20260509124205 | 53 | 192 | 0.0 | 0.0 | 0.00 | 0.06 | 0.06 | 93 | 1016.6 |
| 20260509123704 | 53 | 192 | 0.0 | 0.0 | 0.00 | 0.06 | 0.06 | 93 | 1016.5 |
| 20260509123204 | 53 | 192 | 0.0 | 0.0 | 0.00 | 0.06 | 0.06 | 93 | 1016.7 |
| 20260509122705 | 53 | 192 | 0.0 | 0.0 | 0.00 | 0.06 | 0.06 | 93 | 1016.5 |
| 20260509121704 | 54 | 189 | 0.0 | 0.0 | 0.00 | 0.06 | 0.06 | 93 | 1016.6 |
| 20260509121204 | 54 | 186 | 0.0 | 0.0 | 0.00 | 0.06 | 0.06 | 93 | 1016.7 |
| 20260509120705 | 54 | 194 | 0.0 | 0.0 | 0.00 | 0.06 | 0.06 | 93 | 1016.4 |
| 20260509120204 | 54 | 209 | 0.0 | 0.0 | 0.00 | 0.06 | 0.06 | 93 | 1016.3 |
| 20260509115204 | 53 | 177 | 0.0 | 0.0 | 0.00 | 0.06 | 0.06 | 93 | 1016.4 |
| 20260509114705 | 53 | 177 | 0.0 | 0.0 | 0.00 | 0.06 | 0.06 | 93 | 1016.4 |
| 20260509114205 | 53 | 176 | 0.0 | 0.0 | 0.00 | 0.06 | 0.06 | 92 | 1016.4 |
| 20260509113704 | 53 | 174 | 0.9 | 0.9 | 0.00 | 0.06 | 0.06 | 92 | 1016.4 |
| 20260509113205 | 53 | 171 | 0.9 | 0.9 | 0.00 | 0.06 | 0.06 | 91 | 1016.6 |
| 20260509112705 | 53 | 172 | 0.9 | 1.7 | 0.00 | 0.06 | 0.06 | 91 | 1016.5 |
| 20260509112205 | 53 | 194 | 0.0 | 0.0 | 0.00 | 0.06 | 0.06 | 90 | 1016.5 |
| 20260509111704 | 53 | 200 | 0.0 | 0.0 | 0.00 | 0.06 | 0.06 | 89 | 1016.4 |
| 20260509111205 | 54 | 200 | 0.0 | 0.0 | 0.00 | 0.06 | 0.06 | 89 | 1016.5 |
| 20260509110705 | 55 | 200 | 0.0 | 0.0 | 0.00 | 0.06 | 0.06 | 88 | 1016.6 |
| 20260509105704 | 55 | 201 | 0.0 | 0.0 | 0.00 | 0.06 | 0.06 | 87 | 1016.4 |
| 20260509105205 | 55 | 201 | 0.0 | 0.0 | 0.00 | 0.06 | 0.06 | 86 | 1016.3 |
| 20260509104705 | 55 | 201 | 0.0 | 0.0 | 0.00 | 0.06 | 0.06 | 85 | 1016.3 |
| 20260509104204 | 56 | 201 | 0.0 | 0.0 | 0.00 | 0.06 | 0.06 | 83 | 1016.3 |
| 20260509102705 | 56 | 201 | 0.0 | 0.0 | 0.00 | 0.06 | 0.06 | 83 | 1016.2 |
| 20260509102205 | 56 | 201 | 0.0 | 0.0 | 0.00 | 0.06 | 0.06 | 84 | 1016.1 |
| 20260509101705 | 56 | 201 | 0.0 | 0.0 | 0.00 | 0.06 | 0.06 | 84 | 1016.2 |
| 20260509101205 | 56 | 202 | 0.0 | 0.0 | 0.00 | 0.06 | 0.06 | 84 | 1016.2 |
| 20260509100704 | 56 | 202 | 0.0 | 0.0 | 0.00 | 0.06 | 0.06 | 84 | 1016.2 |
| 20260509100205 | 56 | 201 | 0.0 | 0.0 | 0.00 | 0.06 | 0.06 | 84 | 1016.1 |